sat.trackr.live / text

‹ back to catalog

YUNYAO-1 48

NORAD 63349 · 2025-059F

PAYLOAD ACTIVE UNKNOWN

§ Identity

Operator
Country
PRC
Launch date
2025-03-21
Launch site
JSC
Launch vehicle
Mass (kg)
RCS (m²)

External: N2YO · Heavens-Above · Gunter

§ Orbital elements

Epoch: 2026-05-25T03:54:22.984128Z

Period
95.30 min
Inclination
97.6103°
Eccentricity
0.0014106
Mean motion
15.11091694 rev/d
Perigee alt
523.1 km
Apogee alt
542.6 km
Semi-major
6,911.0 km
B*
1.6804e-4
RAAN
326.7994°
Arg perigee
235.6101°
Mean anomaly
124.3795°
Rev number
6,482

§ Raw data

YUNYAO-1 481 63349U 25059F   26145.16276602  .00002753  00000+0  16804-3 0  99922 63349  97.6103 326.7994 0014106 235.6101 124.3795 15.11091694 64821

JSON: /api/v1/satellites/63349 · /tle

For live sub-satellite position, see the globe view (requires WebGL).

§ Visibility from observer

Set your observer location to see the next 7 days of passes ≥ 10°. The values pass through the URL so the page stays shareable.

No JS? Fill the form by hand. The geolocation button needs JavaScript.